loading
|
Showing default

OAO 1, 2142

Orbit data source: Space-Track

OAO 1, 2142 is a payload satellite owned by GSFC (US) in LEO that was launched on Fri, 08 Apr 1966 UTC via an ATLAS SLV-3 AGENA D launch vehicle from the Air Force Eastern Test Range (AFETR). Payloads include a variety of satellites, spacecraft, and rockets equipped with specific instruments for various scientific and technological missions. These include communications satellites like Starlink; space stations such as the ISS; scientific satellites like the Hubble; Earth observation satellites from companies like Planet Labs, Umbra, and HawkEye 360; GPS; miniature CubeSats for education and research; and military/defense satellites.

Loading next visibility...
Loading greatness...
OAO 1 details
Identifier
2142, 1966-031A
Orbit
LEO
Last TLE update17 hours ago
Origin
Flag of USGSFC (US)
ManufacturerGrummann
MissionCivil Astronomy
Bus & MotorOAO, Unknown motor
Mass1,769 kg wet, 1,769 kg dry
Launch date (UTC)
1966-04-08 (58 years ago)
Launch vehicle
ATLAS SLV-3 AGENA D
Launch site
Air Force Eastern Test Range (AFETR)
Object type
Payload
Rocket body
Debris
Shape & HBROct Cyl + 2 Pan, 6.5 m
Radar Cross Section9.480 m², Large (>1 m²)

Expand to show TLE details & history

TLE from 17 hours ago
0 OAO 1
1 02142U 66031A   24276.87587781  .00000945  00000-0  33863-3 0  9991
2 02142  35.0444 131.6049 0006172  96.6104 263.5287 14.34364638 61672
Epoch: 2024-10-02T21:01Z
Definitive object data (Epoch: 2024-10-02T21:01:15.842Z)
Latitude0.00002°
Longitude164.21996°
Altitude776.633 km
Speed7.467 km/s
True Right ascension08h 46m 25s
True Declination0° 00' 00"
Sunlit
Object was in daylight at TLE epoch
Predictive object data (real-time)
Latitude31.79969°
Longitude-138.09422°
Altitude773.695 km
Speed7.474 km/s
Apparent Right ascension15h 40m 35s
Apparent Declination-2° 50' 60"
Sunlit
Object is in daylight
Predictive observer data (real-time)
Local Sidereal Time07:52:38
Azimuth74.152° E
Elevation-22.302°
Doppler factor1
Orbital elements
Apogee784.713 km
Perigee775.877 km
Semi-major axis7,158.432 km
Eccentricity0.0006172
Inclination35.0444°
RAAN131.6049°
Arg. of periapsis96.6104°
True anomaly263.45843°
Mean anomaly263.5287°
Eccentric anomaly263.49356°
Mean motion3.58357 °/min
BSTAR0.00033863
Period100.46 mins
No data available
Loading...
Other satellites on launch #31 in the year 1966 (1966-04-08 UTC)

OAO 1 Visibility forecast

Observer location: 39.9160978°, -105.1181434

OAO 1 is not visible in the next 10 days
Span
Click to sort rows by Start time (UTC) header in descending order
Start Az.
Max El. time (UTC)
Max El. Az.
Max El.
End time (UTC)
End Az.